Location: Canazei
(46.4667°N, 11.7667°E)
Time: 18:19:07
(UTC+00:00)

PSLV R/B - Pass Details

Date: 21 April 2021
Orbit: 593 x 629 km, 98.0° (Epoch: 12 May)

Event Time Altitude Azimuth Distance (km) Brightness Sun altitude
Rises 03:23:30 0° 14° (NNE) 2,869 7.7 -9.0°
Reaches altitude 10° 03:25:42 10° 15° (NNE) 1,955 6.8 -8.7°
Maximum altitude 03:29:57 80° 103° (ESE) 612 3.6 -8.0°
Drops below altitude 10° 03:34:07 10° 191° (S) 1,924 5.7 -7.4°
Sets 03:36:16 0° 192° (SSW) 2,819 6.6 -7.1°
